Time,TemperatureF,DewpointF,PressureIn,WindDirection,WindDirectionDegrees,WindSpeedMPH,WindSpeedGustMPH,Humidity,HourlyPrecipIn,Conditions,Clouds,dailyrainin,SoftwareType,DateUTC
2013-10-09 00:01:00,43.7,27.7,30.41,NW,315,2.0,2.0,53,0.00,,,0.00,meteohub,2013-10-09 04:01:00,
2013-10-09 00:06:00,43.9,27.9,30.41,South,180,2.0,3.0,53,0.00,,,0.00,meteohub,2013-10-09 04:06:00,
2013-10-09 00:11:00,43.9,27.9,30.41,SSE,158,0.0,4.0,53,0.00,,,0.00,meteohub,2013-10-09 04:11:00,
2013-10-09 00:16:00,44.1,27.7,30.37,ESE,112,2.0,4.0,52,0.00,,,0.00,meteohub,2013-10-09 04:16:00,
2013-10-09 00:21:00,44.2,27.7,30.37,South,180,0.0,4.0,52,0.00,,,0.00,meteohub,2013-10-09 04:21:00,
2013-10-09 00:26:00,44.2,27.3,30.37,WSW,248,2.0,4.0,51,0.00,,,0.00,meteohub,2013-10-09 04:26:00,
2013-10-09 00:31:00,43.9,27.0,30.38,WSW,248,0.0,4.0,51,0.00,,,0.00,meteohub,2013-10-09 04:31:00,
2013-10-09 00:37:00,43.7,26.8,30.38,West,270,2.0,3.0,51,0.00,,,0.00,meteohub,2013-10-09 04:37:00,
2013-10-09 00:42:00,43.5,26.6,30.38,West,270,0.0,3.0,51,0.00,,,0.00,meteohub,2013-10-09 04:42:00,
2013-10-09 00:47:00,43.3,26.4,30.38,WNW,292,2.0,3.0,51,0.00,,,0.00,meteohub,2013-10-09 04:47:00,
2013-10-09 00:52:00,43.3,26.4,30.38,NW,315,1.0,2.0,51,0.00,,,0.00,meteohub,2013-10-09 04:52:00,
2013-10-09 00:57:00,43.2,25.9,30.38,West,270,1.0,2.0,50,0.00,,,0.00,meteohub,2013-10-09 04:57:00,
2013-10-09 01:02:00,43.0,25.7,30.38,West,270,1.0,2.0,50,0.00,,,0.00,meteohub,2013-10-09 05:02:00,
2013-10-09 01:07:00,43.0,25.7,30.38,West,270,2.0,2.0,50,0.00,,,0.00,meteohub,2013-10-09 05:07:00,
2013-10-09 01:12:00,43.0,25.7,30.38,WNW,292,1.0,2.0,50,0.00,,,0.00,meteohub,2013-10-09 05:12:00,
2013-10-09 01:17:00,43.0,25.7,30.38,NNW,338,3.0,3.0,50,0.00,,,0.00,meteohub,2013-10-09 05:17:00,
2013-10-09 01:22:00,43.0,25.7,30.38,NNW,338,1.0,3.0,50,0.00,,,0.00,meteohub,2013-10-09 05:22:00,
2013-10-09 01:27:00,43.5,26.2,30.38,WNW,292,3.0,3.0,50,0.00,,,0.00,meteohub,2013-10-09 05:27:00,
2013-10-09 01:32:00,43.3,26.1,30.35,WNW,292,0.0,3.0,50,0.00,,,0.00,meteohub,2013-10-09 05:32:00,
2013-10-09 01:37:00,43.3,26.1,30.35,West,270,0.0,3.0,50,0.00,,,0.00,meteohub,2013-10-09 05:37:00,
2013-10-09 01:42:00,43.0,25.7,30.35,West,270,0.0,3.0,50,0.00,,,0.00,meteohub,2013-10-09 05:42:00,
2013-10-09 01:47:00,43.2,25.9,30.35,WSW,248,0.0,0.0,50,0.00,,,0.00,meteohub,2013-10-09 05:47:00,
2013-10-09 01:52:00,43.3,26.1,30.35,West,270,0.0,0.0,50,0.00,,,0.00,meteohub,2013-10-09 05:52:00,
2013-10-09 01:57:00,43.2,25.9,30.35,West,270,0.0,0.0,50,0.00,,,0.00,meteohub,2013-10-09 05:57:00,
2013-10-09 02:02:00,43.2,25.9,30.35,West,270,0.0,0.0,50,0.00,,,0.00,meteohub,2013-10-09 06:02:00,
2013-10-09 02:07:00,43.0,25.7,30.35,WNW,292,0.0,2.0,50,0.00,,,0.00,meteohub,2013-10-09 06:07:00,
2013-10-09 02:12:00,43.0,25.7,30.35,WNW,292,1.0,2.0,50,0.00,,,0.00,meteohub,2013-10-09 06:12:00,
2013-10-09 02:17:00,43.3,26.4,30.38,West,270,2.0,3.0,51,0.00,,,0.00,meteohub,2013-10-09 06:17:00,
2013-10-09 02:22:00,43.3,26.1,30.38,WNW,292,2.0,3.0,50,0.00,,,0.00,meteohub,2013-10-09 06:22:00,
2013-10-09 02:27:00,43.2,25.9,30.38,NW,315,0.0,3.0,50,0.00,,,0.00,meteohub,2013-10-09 06:27:00,
2013-10-09 02:32:00,43.2,25.9,30.35,WNW,292,0.0,3.0,50,0.00,,,0.00,meteohub,2013-10-09 06:32:00,
2013-10-09 02:37:00,43.2,25.9,30.35,WNW,292,3.0,3.0,50,0.00,,,0.00,meteohub,2013-10-09 06:37:00,
2013-10-09 02:42:00,43.0,25.7,30.35,WNW,292,0.0,3.0,50,0.00,,,0.00,meteohub,2013-10-09 06:42:00,
2013-10-09 02:47:00,42.8,25.5,30.35,NW,315,2.0,3.0,50,0.00,,,0.00,meteohub,2013-10-09 06:47:00,
2013-10-09 02:52:00,42.6,25.3,30.35,NW,315,2.0,3.0,50,0.00,,,0.00,meteohub,2013-10-09 06:52:00,
2013-10-09 02:57:00,42.8,25.5,30.35,WNW,292,3.0,3.0,50,0.00,,,0.00,meteohub,2013-10-09 06:57:00,
2013-10-09 03:02:00,42.8,25.5,30.35,NW,315,2.0,4.0,50,0.00,,,0.00,meteohub,2013-10-09 07:02:00,
2013-10-09 03:07:00,43.0,25.7,30.35,NW,315,2.0,4.0,50,0.00,,,0.00,meteohub,2013-10-09 07:07:00,
2013-10-09 03:12:00,43.0,25.7,30.35,NW,315,3.0,4.0,50,0.00,,,0.00,meteohub,2013-10-09 07:12:00,
2013-10-09 03:17:00,43.2,25.9,30.35,WNW,292,3.0,3.0,50,0.00,,,0.00,meteohub,2013-10-09 07:17:00,
2013-10-09 03:22:00,43.0,25.7,30.35,NW,315,3.0,3.0,50,0.00,,,0.00,meteohub,2013-10-09 07:22:00,
2013-10-09 03:27:00,43.0,25.7,30.35,NW,315,3.0,3.0,50,0.00,,,0.00,meteohub,2013-10-09 07:27:00,
2013-10-09 03:32:00,42.8,25.5,30.35,WNW,292,3.0,3.0,50,0.00,,,0.00,meteohub,2013-10-09 07:32:00,
2013-10-09 03:37:00,42.8,25.5,30.35,NW,315,3.0,3.0,50,0.00,,,0.00,meteohub,2013-10-09 07:37:00,
2013-10-09 03:42:00,42.8,25.5,30.35,NW,315,3.0,3.0,50,0.00,,,0.00,meteohub,2013-10-09 07:42:00,
2013-10-09 03:47:00,42.8,25.5,30.35,NW,315,3.0,3.0,50,0.00,,,0.00,meteohub,2013-10-09 07:47:00,
2013-10-09 03:52:00,42.6,25.9,30.35,NW,315,3.0,4.0,51,0.00,,,0.00,meteohub,2013-10-09 07:52:00,
2013-10-09 03:57:00,42.6,25.9,30.35,NNW,338,2.0,4.0,51,0.00,,,0.00,meteohub,2013-10-09 07:57:00,
2013-10-09 04:02:00,42.8,25.5,30.35,NNW,338,2.0,4.0,50,0.00,,,0.00,meteohub,2013-10-09 08:02:00,
2013-10-09 04:07:00,42.4,25.7,30.35,NW,315,3.0,3.0,51,0.00,,,0.00,meteohub,2013-10-09 08:07:00,
2013-10-09 04:12:00,42.4,25.7,30.35,NW,315,2.0,3.0,51,0.00,,,0.00,meteohub,2013-10-09 08:12:00,
2013-10-09 04:17:00,42.4,25.7,30.35,NW,315,2.0,3.0,51,0.00,,,0.00,meteohub,2013-10-09 08:17:00,
2013-10-09 04:22:00,42.3,25.5,30.35,NW,315,2.0,3.0,51,0.00,,,0.00,meteohub,2013-10-09 08:22:00,
2013-10-09 04:27:00,42.1,24.8,30.35,NNW,338,2.0,3.0,50,0.00,,,0.00,meteohub,2013-10-09 08:27:00,
2013-10-09 04:32:00,42.1,24.8,30.35,NW,315,2.0,3.0,50,0.00,,,0.00,meteohub,2013-10-09 08:32:00,
2013-10-09 04:37:00,41.9,24.6,30.36,NW,315,2.0,3.0,50,0.00,,,0.00,meteohub,2013-10-09 08:37:00,
2013-10-09 04:42:00,41.7,24.4,30.36,NW,315,2.0,3.0,50,0.00,,,0.00,meteohub,2013-10-09 08:42:00,
2013-10-09 04:47:00,41.7,24.4,30.36,WNW,292,3.0,3.0,50,0.00,,,0.00,meteohub,2013-10-09 08:47:00,
2013-10-09 04:52:00,41.7,24.4,30.36,North,-999,-999.0,3.0,50,0.00,,,0.00,meteohub,2013-10-09 08:52:00,
2013-10-09 04:57:00,41.7,24.4,30.36,WNW,292,2.0,3.0,50,0.00,,,0.00,meteohub,2013-10-09 08:57:00,
2013-10-09 05:02:00,41.7,24.4,30.36,West,270,2.0,2.0,50,0.00,,,0.00,meteohub,2013-10-09 09:02:00,
2013-10-09 05:07:00,41.7,24.1,30.36,WNW,292,1.0,2.0,49,0.00,,,0.00,meteohub,2013-10-09 09:07:00,
2013-10-09 05:12:00,42.3,24.4,30.35,WNW,292,2.0,2.0,49,0.00,,,0.00,meteohub,2013-10-09 09:12:00,
2013-10-09 05:17:00,42.4,24.3,30.35,WSW,248,0.0,2.0,48,0.00,,,0.00,meteohub,2013-10-09 09:17:00,
2013-10-09 05:22:00,42.4,23.7,30.35,WNW,292,2.0,2.0,47,0.00,,,0.00,meteohub,2013-10-09 09:22:00,
2013-10-09 05:27:00,42.4,23.7,30.35,West,270,0.0,2.0,47,0.00,,,0.00,meteohub,2013-10-09 09:27:00,
2013-10-09 05:32:00,42.6,23.4,30.35,WNW,292,0.0,2.0,46,0.00,,,0.00,meteohub,2013-10-09 09:32:00,
2013-10-09 05:37:00,42.4,22.6,30.35,WNW,292,0.0,2.0,45,0.00,,,0.00,meteohub,2013-10-09 09:37:00,
2013-10-09 05:42:00,42.4,23.2,30.35,WNW,292,0.0,1.0,46,0.00,,,0.00,meteohub,2013-10-09 09:42:00,
2013-10-09 05:47:00,42.3,22.5,30.35,WNW,292,1.0,2.0,45,0.00,,,0.00,meteohub,2013-10-09 09:47:00,
2013-10-09 05:52:00,42.3,22.5,30.35,WNW,292,1.0,2.0,45,0.00,,,0.00,meteohub,2013-10-09 09:52:00,
2013-10-09 05:57:00,42.1,22.3,30.35,NW,315,2.0,2.0,45,0.00,,,0.00,meteohub,2013-10-09 09:57:00,
2013-10-09 06:02:00,41.9,21.6,30.36,NW,315,2.0,2.0,44,0.00,,,0.00,meteohub,2013-10-09 10:02:00,
2013-10-09 06:07:00,41.7,21.9,30.36,NW,315,2.0,2.0,45,0.00,,,0.00,meteohub,2013-10-09 10:07:00,
2013-10-09 06:12:00,41.7,21.9,30.36,NW,315,2.0,2.0,45,0.00,,,0.00,meteohub,2013-10-09 10:12:00,
2013-10-09 06:17:00,41.7,21.9,30.36,NW,315,2.0,2.0,45,0.00,,,0.00,meteohub,2013-10-09 10:17:00,
2013-10-09 06:22:00,41.9,22.1,30.36,NW,315,2.0,2.0,45,0.00,,,0.00,meteohub,2013-10-09 10:22:00,
2013-10-09 06:27:00,41.7,21.9,30.36,NW,315,2.0,3.0,45,0.00,,,0.00,meteohub,2013-10-09 10:27:00,
2013-10-09 06:32:00,41.7,21.9,30.39,NNW,338,2.0,3.0,45,0.00,,,0.00,meteohub,2013-10-09 10:32:00,
2013-10-09 06:37:00,41.7,21.9,30.39,NNW,338,2.0,3.0,45,0.00,,,0.00,meteohub,2013-10-09 10:37:00,
2013-10-09 06:42:00,41.7,21.9,30.39,NW,315,2.0,2.0,45,0.00,,,0.00,meteohub,2013-10-09 10:42:00,
2013-10-09 06:47:00,41.9,22.1,30.36,NW,315,2.0,2.0,45,0.00,,,0.00,meteohub,2013-10-09 10:47:00,
2013-10-09 06:52:00,41.9,22.1,30.36,NW,315,2.0,3.0,45,0.00,,,0.00,meteohub,2013-10-09 10:52:00,
2013-10-09 06:57:00,41.9,21.6,30.36,NW,315,2.0,3.0,44,0.00,,,0.00,meteohub,2013-10-09 10:57:00,
2013-10-09 07:02:00,41.7,21.4,30.36,NW,315,2.0,3.0,44,0.00,,,0.00,meteohub,2013-10-09 11:02:00,
2013-10-09 07:07:00,41.7,21.4,30.36,NW,315,2.0,3.0,44,0.00,,,0.00,meteohub,2013-10-09 11:07:00,
2013-10-09 07:12:00,41.7,21.4,30.36,NW,315,2.0,3.0,44,0.00,,,0.00,meteohub,2013-10-09 11:12:00,
2013-10-09 07:17:00,41.7,21.4,30.36,NW,315,3.0,3.0,44,0.00,,,0.00,meteohub,2013-10-09 11:17:00,
2013-10-09 07:22:00,41.9,21.0,30.36,NW,315,3.0,3.0,43,0.00,,,0.00,meteohub,2013-10-09 11:22:00,
2013-10-09 07:27:00,41.9,21.0,30.36,NW,315,3.0,3.0,43,0.00,,,0.00,meteohub,2013-10-09 11:27:00,
2013-10-09 07:32:00,41.9,21.0,30.36,NW,315,3.0,3.0,43,0.00,,,0.00,meteohub,2013-10-09 11:32:00,
2013-10-09 07:37:00,41.9,21.0,30.36,NW,315,3.0,3.0,43,0.00,,,0.00,meteohub,2013-10-09 11:37:00,
2013-10-09 07:42:00,41.9,20.5,30.36,NW,315,2.0,3.0,42,0.00,,,0.00,meteohub,2013-10-09 11:42:00,
2013-10-09 07:47:00,42.1,20.7,30.35,NW,315,3.0,3.0,42,0.00,,,0.00,meteohub,2013-10-09 11:47:00,
2013-10-09 07:52:00,42.3,20.8,30.35,NW,315,2.0,3.0,42,0.00,,,0.00,meteohub,2013-10-09 11:52:00,
2013-10-09 07:57:00,42.4,21.0,30.35,WNW,292,3.0,3.0,42,0.00,,,0.00,meteohub,2013-10-09 11:57:00,
2013-10-09 08:02:00,42.6,21.2,30.35,NW,315,4.0,4.0,42,0.00,,,0.00,meteohub,2013-10-09 12:02:00,
2013-10-09 08:03:00,42.4,21.0,30.35,NW,315,4.0,4.0,42,0.00,,,0.00,meteohub,2013-10-09 12:03:00,
2013-10-09 08:08:00,42.4,21.0,30.35,NW,315,2.0,4.0,42,0.00,,,0.00,meteohub,2013-10-09 12:08:00,
2013-10-09 08:13:00,42.4,21.0,30.35,WNW,292,2.0,4.0,42,0.00,,,0.00,meteohub,2013-10-09 12:13:00,
2013-10-09 08:18:00,42.4,21.0,30.35,WNW,292,3.0,4.0,42,0.00,,,0.00,meteohub,2013-10-09 12:18:00,
2013-10-09 08:23:00,42.6,21.2,30.35,NW,315,3.0,3.0,42,0.00,,,0.00,meteohub,2013-10-09 12:23:00,
2013-10-09 08:28:00,42.8,21.4,30.35,NW,315,3.0,3.0,42,0.00,,,0.00,meteohub,2013-10-09 12:28:00,
2013-10-09 08:33:00,43.3,21.2,30.38,NNW,338,3.0,3.0,41,0.00,,,0.00,meteohub,2013-10-09 12:33:00,
2013-10-09 08:38:00,43.5,21.4,30.38,NNW,338,4.0,4.0,41,0.00,,,0.00,meteohub,2013-10-09 12:38:00,
2013-10-09 08:43:00,43.9,21.7,30.38,NNW,338,3.0,4.0,41,0.00,,,0.00,meteohub,2013-10-09 12:43:00,
2013-10-09 08:48:00,44.2,22.1,30.37,NNW,338,2.0,4.0,41,0.00,,,0.00,meteohub,2013-10-09 12:48:00,
2013-10-09 08:53:00,44.4,22.3,30.37,NW,315,2.0,4.0,41,0.00,,,0.00,meteohub,2013-10-09 12:53:00,
2013-10-09 08:58:00,44.6,21.7,30.37,NNW,338,3.0,3.0,40,0.00,,,0.00,meteohub,2013-10-09 12:58:00,
2013-10-09 09:03:00,45.1,22.3,30.36,NW,315,2.0,3.0,40,0.00,,,0.00,meteohub,2013-10-09 13:03:00,
2013-10-09 09:08:00,45.5,22.1,30.36,North,0,2.0,3.0,39,0.00,,,0.00,meteohub,2013-10-09 13:08:00,
2013-10-09 09:13:00,46.0,22.5,30.36,WNW,292,2.0,3.0,39,0.00,,,0.00,meteohub,2013-10-09 13:13:00,
2013-10-09 09:18:00,46.4,22.3,30.35,WNW,292,2.0,3.0,38,0.00,,,0.00,meteohub,2013-10-09 13:18:00,
2013-10-09 09:23:00,46.9,22.6,30.35,NW,315,3.0,3.0,38,0.00,,,0.00,meteohub,2013-10-09 13:23:00,
2013-10-09 09:28:00,47.5,22.6,30.35,NW,315,2.0,3.0,37,0.00,,,0.00,meteohub,2013-10-09 13:28:00,
2013-10-09 09:33:00,47.8,22.8,30.34,West,270,2.0,3.0,37,0.00,,,0.00,meteohub,2013-10-09 13:33:00,
2013-10-09 09:38:00,48.0,23.0,30.34,WNW,292,0.0,3.0,37,0.00,,,0.00,meteohub,2013-10-09 13:38:00,
2013-10-09 09:43:00,48.6,22.8,30.34,ENE,68,0.0,3.0,36,0.00,,,0.00,meteohub,2013-10-09 13:43:00,
2013-10-09 09:48:00,48.9,23.2,30.37,NNE,22,0.0,3.0,36,0.00,,,0.00,meteohub,2013-10-09 13:48:00,
2013-10-09 09:53:00,49.3,22.8,30.36,SE,135,3.0,3.0,35,0.00,,,0.00,meteohub,2013-10-09 13:53:00,
2013-10-09 09:58:00,49.6,23.2,30.36,ESE,112,0.0,4.0,35,0.00,,,0.00,meteohub,2013-10-09 13:58:00,
2013-10-09 10:03:00,50.2,23.0,30.32,SSE,158,3.0,4.0,34,0.00,,,0.00,meteohub,2013-10-09 14:03:00,
2013-10-09 10:08:00,50.4,21.7,30.32,NE,45,3.0,5.0,32,0.00,,,0.00,meteohub,2013-10-09 14:08:00,
2013-10-09 10:13:00,50.7,21.9,30.32,NW,315,0.0,5.0,32,0.00,,,0.00,meteohub,2013-10-09 14:13:00,
2013-10-09 10:18:00,50.9,22.1,30.35,SE,135,1.0,5.0,32,0.00,,,0.00,meteohub,2013-10-09 14:18:00,
2013-10-09 10:23:00,51.4,21.9,30.35,SSE,158,4.0,4.0,31,0.00,,,0.00,meteohub,2013-10-09 14:23:00,
2013-10-09 10:28:00,51.6,22.1,30.35,SSE,158,5.0,5.0,31,0.00,,,0.00,meteohub,2013-10-09 14:28:00,
2013-10-09 10:33:00,52.2,22.5,30.34,SSE,158,3.0,5.0,31,0.00,,,0.00,meteohub,2013-10-09 14:33:00,
2013-10-09 10:39:00,52.5,22.1,30.34,South,180,2.0,6.0,30,0.00,,,0.00,meteohub,2013-10-09 14:39:00,
2013-10-09 10:44:00,52.7,22.3,30.34,SSE,158,2.0,6.0,30,0.00,,,0.00,meteohub,2013-10-09 14:44:00,
2013-10-09 10:49:00,53.1,22.5,30.33,SSE,158,6.0,6.0,30,0.00,,,0.00,meteohub,2013-10-09 14:49:00,
2013-10-09 10:54:00,53.4,22.8,30.33,SSE,158,3.0,6.0,30,0.00,,,0.00,meteohub,2013-10-09 14:54:00,
2013-10-09 10:59:00,54.0,21.7,30.32,SE,135,4.0,6.0,28,0.00,,,0.00,meteohub,2013-10-09 14:59:00,
2013-10-09 11:04:00,54.1,21.7,30.32,South,180,3.0,6.0,28,0.00,,,0.00,meteohub,2013-10-09 15:04:00,
2013-10-09 11:09:00,54.5,22.1,30.32,ESE,112,4.0,8.0,28,0.00,,,0.00,meteohub,2013-10-09 15:09:00,
2013-10-09 11:14:00,54.9,22.5,30.32,SE,135,4.0,8.0,28,0.00,,,0.00,meteohub,2013-10-09 15:14:00,
2013-10-09 11:19:00,55.2,22.8,30.32,SSE,158,2.0,8.0,28,0.00,,,0.00,meteohub,2013-10-09 15:19:00,
2013-10-09 11:24:00,55.6,22.3,30.31,South,180,4.0,6.0,27,0.00,,,0.00,meteohub,2013-10-09 15:24:00,
2013-10-09 11:29:00,55.8,22.3,30.31,SSE,158,7.0,7.0,27,0.00,,,0.00,meteohub,2013-10-09 15:29:00,
2013-10-09 11:34:00,55.9,22.5,30.31,SE,135,3.0,6.0,27,0.00,,,0.00,meteohub,2013-10-09 15:34:00,
2013-10-09 11:39:00,56.3,22.8,30.31,South,180,4.0,7.0,27,0.00,,,0.00,meteohub,2013-10-09 15:39:00,
2013-10-09 11:44:00,56.5,23.0,30.31,SE,135,4.0,8.0,27,0.00,,,0.00,meteohub,2013-10-09 15:44:00,
2013-10-09 11:49:00,56.8,23.4,30.30,SE,135,2.0,8.0,27,0.00,,,0.00,meteohub,2013-10-09 15:49:00,
2013-10-09 11:54:00,56.8,23.4,30.30,SSW,202,2.0,8.0,27,0.00,,,0.00,meteohub,2013-10-09 15:54:00,
2013-10-09 11:59:00,57.0,23.4,30.30,SSE,158,5.0,8.0,27,0.00,,,0.00,meteohub,2013-10-09 15:59:00,
2013-10-09 12:04:00,57.6,23.9,30.30,SSE,158,6.0,8.0,27,0.00,,,0.00,meteohub,2013-10-09 16:04:00,
2013-10-09 12:09:00,57.6,23.9,30.30,SSE,158,8.0,8.0,27,0.00,,,0.00,meteohub,2013-10-09 16:09:00,
2013-10-09 12:14:00,57.4,22.8,30.30,SSE,158,6.0,9.0,26,0.00,,,0.00,meteohub,2013-10-09 16:14:00,
2013-10-09 12:19:00,57.0,23.4,30.30,SSE,158,5.0,10.0,27,0.00,,,0.00,meteohub,2013-10-09 16:19:00,
2013-10-09 12:24:00,57.2,22.6,30.30,SE,135,6.0,10.0,26,0.00,,,0.00,meteohub,2013-10-09 16:24:00,
2013-10-09 12:29:00,57.4,22.8,30.30,South,180,2.0,7.0,26,0.00,,,0.00,meteohub,2013-10-09 16:29:00,
2013-10-09 12:34:00,57.7,23.2,30.30,SSE,158,7.0,8.0,26,0.00,,,0.00,meteohub,2013-10-09 16:34:00,
2013-10-09 12:39:00,57.7,23.2,30.30,SSE,158,5.0,8.0,26,0.00,,,0.00,meteohub,2013-10-09 16:39:00,
2013-10-09 12:44:00,58.3,23.5,30.29,SE,135,3.0,7.0,26,0.00,,,0.00,meteohub,2013-10-09 16:44:00,
2013-10-09 12:49:00,58.5,23.7,30.26,SSE,158,2.0,7.0,26,0.00,,,0.00,meteohub,2013-10-09 16:49:00,
2013-10-09 12:54:00,58.6,23.9,30.25,SE,135,6.0,9.0,26,0.00,,,0.00,meteohub,2013-10-09 16:54:00,
2013-10-09 12:59:00,59.0,24.3,30.25,SSE,158,5.0,9.0,26,0.00,,,0.00,meteohub,2013-10-09 16:59:00,
2013-10-09 13:04:00,59.2,24.4,30.25,South,180,6.0,6.0,26,0.00,,,0.00,meteohub,2013-10-09 17:04:00,
2013-10-09 13:09:00,59.4,23.5,30.25,SE,135,2.0,7.0,25,0.00,,,0.00,meteohub,2013-10-09 17:09:00,
2013-10-09 13:14:00,59.9,25.0,30.25,SSE,158,5.0,7.0,26,0.00,,,0.00,meteohub,2013-10-09 17:14:00,
2013-10-09 13:19:00,60.4,24.4,30.24,SSE,158,4.0,7.0,25,0.00,,,0.00,meteohub,2013-10-09 17:19:00,
2013-10-09 13:24:00,61.0,25.0,30.24,South,180,6.0,7.0,25,0.00,,,0.00,meteohub,2013-10-09 17:24:00,
2013-10-09 13:29:00,61.2,25.2,30.24,South,180,3.0,7.0,25,0.00,,,0.00,meteohub,2013-10-09 17:29:00,
2013-10-09 13:35:00,61.5,25.3,30.23,SW,225,2.0,8.0,25,0.00,,,0.00,meteohub,2013-10-09 17:35:00,
2013-10-09 13:40:00,62.2,26.1,30.23,ESE,112,4.0,8.0,25,0.00,,,0.00,meteohub,2013-10-09 17:40:00,
2013-10-09 13:45:00,62.8,26.4,30.22,South,180,4.0,6.0,25,0.00,,,0.00,meteohub,2013-10-09 17:45:00,
2013-10-09 13:50:00,63.0,25.7,30.22,SSE,158,3.0,6.0,24,0.00,,,0.00,meteohub,2013-10-09 17:50:00,
2013-10-09 13:55:00,63.3,25.9,30.22,ESE,112,2.0,4.0,24,0.00,,,0.00,meteohub,2013-10-09 17:55:00,
2013-10-09 14:00:00,64.8,27.1,30.21,SSE,158,6.0,6.0,24,0.00,,,0.00,meteohub,2013-10-09 18:00:00,
2013-10-09 14:05:00,66.0,27.1,30.20,SSE,158,4.0,7.0,23,0.00,,,0.00,meteohub,2013-10-09 18:05:00,
2013-10-09 14:10:00,66.9,28.0,30.19,SSE,158,1.0,7.0,23,0.00,,,0.00,meteohub,2013-10-09 18:10:00,
2013-10-09 14:15:00,68.2,27.9,30.18,SSW,202,3.0,5.0,22,0.00,,,0.00,meteohub,2013-10-09 18:15:00,
2013-10-09 14:20:00,69.4,28.9,30.17,SSE,158,2.0,5.0,22,0.00,,,0.00,meteohub,2013-10-09 18:20:00,
2013-10-09 14:25:00,70.2,29.7,30.17,SSE,158,5.0,6.0,22,0.00,,,0.00,meteohub,2013-10-09 18:25:00,
2013-10-09 14:30:00,70.7,26.4,30.16,SSE,158,1.0,7.0,19,0.00,,,0.00,meteohub,2013-10-09 18:30:00,
2013-10-09 14:35:00,70.3,23.5,30.13,ESE,112,0.0,7.0,17,0.00,,,0.00,meteohub,2013-10-09 18:35:00,
2013-10-09 14:40:00,71.4,24.4,30.12,NNE,22,3.0,6.0,17,0.00,,,0.00,meteohub,2013-10-09 18:40:00,
2013-10-09 14:45:00,72.0,23.4,30.12,South,180,5.0,5.0,16,0.00,,,0.00,meteohub,2013-10-09 18:45:00,
2013-10-09 14:50:00,72.0,23.4,30.12,South,180,4.0,6.0,16,0.00,,,0.00,meteohub,2013-10-09 18:50:00,
2013-10-09 14:55:00,71.6,23.2,30.12,South,180,6.0,6.0,16,0.00,,,0.00,meteohub,2013-10-09 18:55:00,
2013-10-09 15:00:00,71.1,24.1,30.13,South,180,3.0,9.0,17,0.00,,,0.00,meteohub,2013-10-09 19:00:00,
2013-10-09 15:05:00,70.9,23.9,30.13,SSE,158,6.0,9.0,17,0.00,,,0.00,meteohub,2013-10-09 19:05:00,
2013-10-09 15:10:00,69.8,18.5,30.14,ESE,112,6.0,9.0,14,0.00,,,0.00,meteohub,2013-10-09 19:10:00,
2013-10-09 15:15:00,68.7,19.2,30.14,SE,135,5.0,9.0,15,-99.99,,,0.00,meteohub,2013-10-09 19:15:00,
2013-10-09 15:21:00,67.6,18.5,30.15,SE,135,4.0,9.0,15,-99.99,,,0.00,meteohub,2013-10-09 19:21:00,
2013-10-09 15:26:00,66.9,20.8,30.16,SSE,158,4.0,8.0,17,-99.99,,,0.00,meteohub,2013-10-09 19:26:00,
2013-10-09 15:31:00,66.2,20.1,30.16,SSE,158,4.0,7.0,17,-99.99,,,0.00,meteohub,2013-10-09 19:31:00,
2013-10-09 15:36:00,65.1,20.7,30.17,SSE,158,6.0,8.0,18,-99.99,,,0.00,meteohub,2013-10-09 19:36:00,
2013-10-09 15:41:00,64.2,19.9,30.18,SSE,158,4.0,8.0,18,-99.99,,,0.00,meteohub,2013-10-09 19:41:00,
2013-10-09 15:46:00,63.9,19.6,30.18,SE,135,4.0,8.0,18,-99.99,,,0.00,meteohub,2013-10-09 19:46:00,
2013-10-09 15:51:00,63.3,19.2,30.19,SSE,158,4.0,7.0,18,0.00,,,0.00,meteohub,2013-10-09 19:51:00,
2013-10-09 15:56:00,63.0,22.5,30.19,SSE,158,4.0,7.0,21,0.00,,,0.00,meteohub,2013-10-09 19:56:00,
2013-10-09 16:01:00,62.4,22.1,30.19,SSE,158,4.0,7.0,21,0.00,,,0.00,meteohub,2013-10-09 20:01:00,
2013-10-09 16:06:00,62.1,21.7,30.19,SSW,202,3.0,6.0,21,0.00,,,0.00,meteohub,2013-10-09 20:06:00,
2013-10-09 16:11:00,61.9,24.8,30.19,SE,135,3.0,6.0,24,0.00,,,0.00,meteohub,2013-10-09 20:11:00,
2013-10-09 16:16:00,61.5,24.4,30.20,SSE,158,5.0,6.0,24,0.00,,,0.00,meteohub,2013-10-09 20:16:00,
2013-10-09 16:21:00,61.2,24.1,30.20,SE,135,3.0,6.0,24,0.00,,,0.00,meteohub,2013-10-09 20:21:00,
2013-10-09 16:26:00,61.0,24.1,30.20,South,180,3.0,6.0,24,0.00,,,0.00,meteohub,2013-10-09 20:26:00,
2013-10-09 16:31:00,60.6,23.7,30.21,SSW,202,3.0,6.0,24,0.00,,,0.00,meteohub,2013-10-09 20:31:00,
2013-10-09 16:36:00,60.3,23.4,30.21,SSE,158,5.0,5.0,24,0.00,,,0.00,meteohub,2013-10-09 20:36:00,
2013-10-09 16:41:00,60.1,24.3,30.21,SSE,158,3.0,6.0,25,0.00,,,0.00,meteohub,2013-10-09 20:41:00,
2013-10-09 16:46:00,59.9,24.1,30.21,SSE,158,6.0,6.0,25,0.00,,,0.00,meteohub,2013-10-09 20:46:00,
2013-10-09 16:51:00,59.5,23.7,30.22,SSW,202,5.0,6.0,25,0.00,,,0.00,meteohub,2013-10-09 20:51:00,
2013-10-09 16:56:00,59.4,23.5,30.22,SSE,158,4.0,6.0,25,0.00,,,0.00,meteohub,2013-10-09 20:56:00,
2013-10-09 17:01:00,59.4,23.5,30.22,SSE,158,4.0,6.0,25,-99.99,,,0.00,meteohub,2013-10-09 21:01:00,
2013-10-09 17:06:00,59.2,24.4,30.22,SSE,158,3.0,6.0,26,-99.99,,,0.00,meteohub,2013-10-09 21:06:00,
2013-10-09 17:11:00,58.8,24.1,30.22,SSE,158,5.0,6.0,26,0.00,,,0.00,meteohub,2013-10-09 21:11:00,
2013-10-09 17:16:00,58.6,23.9,30.22,SSE,158,4.0,6.0,26,0.00,,,0.00,meteohub,2013-10-09 21:16:00,
2013-10-09 17:21:00,58.5,24.6,30.22,SSE,158,4.0,6.0,27,0.00,,,0.00,meteohub,2013-10-09 21:21:00,
2013-10-09 17:27:00,58.3,24.4,30.22,SSE,158,6.0,6.0,27,0.00,,,0.00,meteohub,2013-10-09 21:27:00,
2013-10-09 17:32:00,57.9,24.3,30.23,SSE,158,3.0,6.0,27,0.00,,,0.00,meteohub,2013-10-09 21:32:00,
2013-10-09 17:37:00,57.6,23.9,30.23,SSE,158,4.0,7.0,27,0.00,,,0.00,meteohub,2013-10-09 21:37:00,
2013-10-09 17:42:00,57.2,23.5,30.23,SSE,158,4.0,7.0,27,0.00,,,0.00,meteohub,2013-10-09 21:42:00,
2013-10-09 17:47:00,57.0,23.4,30.23,SSE,158,4.0,6.0,27,0.00,,,0.00,meteohub,2013-10-09 21:47:00,
2013-10-09 17:52:00,56.8,24.1,30.24,SSE,158,3.0,6.0,28,0.00,,,0.00,meteohub,2013-10-09 21:52:00,
2013-10-09 17:57:00,56.7,23.9,30.24,SSE,158,3.0,6.0,28,0.00,,,0.00,meteohub,2013-10-09 21:57:00,
2013-10-09 18:02:00,56.5,23.9,30.24,South,180,3.0,6.0,28,0.00,,,0.00,meteohub,2013-10-09 22:02:00,
2013-10-09 18:07:00,56.3,24.4,30.24,SSE,158,3.0,5.0,29,-99.99,,,0.00,meteohub,2013-10-09 22:07:00,
2013-10-09 18:12:00,56.1,24.4,30.24,SSE,158,4.0,6.0,29,-99.99,,,0.00,meteohub,2013-10-09 22:12:00,
2013-10-09 18:17:00,55.9,24.3,30.24,SSE,158,4.0,6.0,29,-99.99,,,0.00,meteohub,2013-10-09 22:17:00,
2013-10-09 18:22:00,55.8,24.8,30.25,South,180,4.0,6.0,30,-99.99,,,0.00,meteohub,2013-10-09 22:22:00,
2013-10-09 18:27:00,55.4,24.6,30.25,SSE,158,4.0,5.0,30,-99.99,,,0.00,meteohub,2013-10-09 22:27:00,
2013-10-09 18:32:00,55.0,25.0,30.25,South,180,3.0,5.0,31,-99.99,,,0.00,meteohub,2013-10-09 22:32:00,
2013-10-09 18:37:00,54.7,24.6,30.25,SSE,158,2.0,5.0,31,-99.99,,,0.00,meteohub,2013-10-09 22:37:00,
2013-10-09 18:42:00,54.5,24.6,30.25,South,180,2.0,5.0,31,-99.99,,,0.00,meteohub,2013-10-09 22:42:00,
2013-10-09 18:47:00,54.3,25.2,30.26,SSE,158,2.0,4.0,32,-99.99,,,0.00,meteohub,2013-10-09 22:47:00,
2013-10-09 18:52:00,54.1,25.0,30.26,SSE,158,0.0,3.0,32,-99.99,,,0.00,meteohub,2013-10-09 22:52:00,
2013-10-09 18:57:00,54.0,24.8,30.26,SSE,158,1.0,3.0,32,-99.99,,,0.00,meteohub,2013-10-09 22:57:00,
2013-10-09 19:02:00,53.8,25.3,30.26,SSE,158,2.0,2.0,33,-99.99,,,0.00,meteohub,2013-10-09 23:02:00,
2013-10-09 19:07:00,53.4,25.2,30.26,SSE,158,0.0,2.0,33,-99.99,,,0.00,meteohub,2013-10-09 23:07:00,
2013-10-09 19:12:00,53.2,25.0,30.26,SSW,202,0.0,2.0,33,-99.99,,,0.00,meteohub,2013-10-09 23:12:00,
2013-10-09 19:17:00,52.9,25.3,30.27,SSW,202,0.0,2.0,34,-99.99,,,0.00,meteohub,2013-10-09 23:17:00,
2013-10-09 19:22:00,52.7,25.2,30.27,SSW,202,0.0,1.0,34,-99.99,,,0.00,meteohub,2013-10-09 23:22:00,
2013-10-09 19:27:00,52.5,25.7,30.27,SSW,202,0.0,0.0,35,-99.99,,,0.00,meteohub,2013-10-09 23:27:00,
2013-10-09 19:32:00,52.3,25.5,30.27,SSW,202,0.0,0.0,35,-99.99,,,0.00,meteohub,2013-10-09 23:32:00,
2013-10-09 19:37:00,52.0,25.9,30.27,SSW,202,0.0,0.0,36,-99.99,,,0.00,meteohub,2013-10-09 23:37:00,
2013-10-09 19:42:00,51.6,25.5,30.28,SSW,202,0.0,0.0,36,-99.99,,,0.00,meteohub,2013-10-09 23:42:00,
2013-10-09 19:47:00,51.4,26.1,30.28,West,270,0.0,0.0,37,-99.99,,,0.00,meteohub,2013-10-09 23:47:00,
2013-10-09 19:52:00,51.1,25.7,30.28,WNW,292,0.0,0.0,37,-99.99,,,0.00,meteohub,2013-10-09 23:52:00,
2013-10-09 19:57:00,50.7,25.5,30.28,West,270,1.0,2.0,37,-99.99,,,0.00,meteohub,2013-10-09 23:57:00,
2013-10-09 20:02:00,50.5,25.3,30.29,West,270,1.0,2.0,37,-99.99,,,0.00,meteohub,2013-10-10 00:02:00,
2013-10-09 20:07:00,50.4,25.2,30.29,West,270,0.0,2.0,37,-99.99,,,0.00,meteohub,2013-10-10 00:07:00,
2013-10-09 20:12:00,50.2,25.0,30.29,West,270,0.0,2.0,37,-99.99,,,0.00,meteohub,2013-10-10 00:12:00,
2013-10-09 20:17:00,50.4,25.2,30.29,ENE,68,0.0,2.0,37,-99.99,,,0.00,meteohub,2013-10-10 00:17:00,
2013-10-09 20:22:00,50.4,25.2,30.29,ESE,112,0.0,0.0,37,-99.99,,,0.00,meteohub,2013-10-10 00:22:00,
2013-10-09 20:27:00,50.2,25.0,30.29,SSE,158,0.0,0.0,37,-99.99,,,0.00,meteohub,2013-10-10 00:27:00,
2013-10-09 20:32:00,50.2,25.0,30.29,West,270,0.0,0.0,37,-99.99,,,0.00,meteohub,2013-10-10 00:32:00,
2013-10-09 20:37:00,50.0,24.8,30.29,SW,225,0.0,0.0,37,-99.99,,,0.00,meteohub,2013-10-10 00:37:00,
2013-10-09 20:42:00,50.2,25.0,30.29,SSW,202,0.0,0.0,37,-99.99,,,0.00,meteohub,2013-10-10 00:42:00,
2013-10-09 20:47:00,50.2,25.0,30.29,SSW,202,0.0,0.0,37,-99.99,,,0.00,meteohub,2013-10-10 00:47:00,
2013-10-09 20:52:00,50.0,24.8,30.29,SSE,158,0.0,0.0,37,-99.99,,,0.00,meteohub,2013-10-10 00:52:00,
2013-10-09 20:57:00,49.8,25.3,30.29,WSW,248,0.0,0.0,38,-99.99,,,0.00,meteohub,2013-10-10 00:57:00,
2013-10-09 21:02:00,49.5,25.0,30.30,SW,225,0.0,0.0,38,-99.99,,,0.00,meteohub,2013-10-10 01:02:00,
2013-10-09 21:07:00,49.1,24.6,30.30,WNW,292,0.0,0.0,38,-99.99,,,0.00,meteohub,2013-10-10 01:07:00,
2013-10-09 21:12:00,48.9,24.4,30.30,WNW,292,0.0,0.0,38,-99.99,,,0.00,meteohub,2013-10-10 01:12:00,
2013-10-09 21:17:00,48.7,24.3,30.30,WNW,292,0.0,0.0,38,-99.99,,,0.00,meteohub,2013-10-10 01:17:00,
2013-10-09 21:22:00,48.7,24.3,30.30,WNW,292,0.0,0.0,38,-99.99,,,0.00,meteohub,2013-10-10 01:22:00,
2013-10-09 21:27:00,48.6,24.1,30.30,WNW,292,0.0,0.0,38,-99.99,,,0.00,meteohub,2013-10-10 01:27:00,
2013-10-09 21:32:00,48.6,24.1,30.30,WNW,292,0.0,0.0,38,-99.99,,,0.00,meteohub,2013-10-10 01:32:00,
2013-10-09 21:37:00,48.4,24.1,30.30,WNW,292,0.0,0.0,38,-99.99,,,0.00,meteohub,2013-10-10 01:37:00,
2013-10-09 21:42:00,48.4,24.6,30.30,WNW,292,0.0,0.0,39,-99.99,,,0.00,meteohub,2013-10-10 01:42:00,
2013-10-09 21:47:00,48.2,24.4,30.30,WNW,292,0.0,0.0,39,-99.99,,,0.00,meteohub,2013-10-10 01:47:00,
2013-10-09 21:52:00,48.2,23.9,30.30,WNW,292,0.0,0.0,38,-99.99,,,0.00,meteohub,2013-10-10 01:52:00,
2013-10-09 21:57:00,48.0,24.3,30.31,NW,315,0.0,0.0,39,-99.99,,,0.00,meteohub,2013-10-10 01:57:00,
2013-10-09 22:02:00,47.8,24.1,30.31,WNW,292,0.0,0.0,39,-99.99,,,0.00,meteohub,2013-10-10 02:02:00,
2013-10-09 22:07:00,48.0,24.3,30.31,NW,315,0.0,0.0,39,-99.99,,,0.00,meteohub,2013-10-10 02:07:00,
2013-10-09 22:12:00,47.8,24.1,30.31,NW,315,0.0,0.0,39,-99.99,,,0.00,meteohub,2013-10-10 02:12:00,
2013-10-09 22:17:00,48.0,24.3,30.31,NW,315,0.0,0.0,39,-99.99,,,0.00,meteohub,2013-10-10 02:17:00,
2013-10-09 22:22:00,48.0,24.3,30.31,NW,315,0.0,0.0,39,-99.99,,,0.00,meteohub,2013-10-10 02:22:00,
2013-10-09 22:27:00,48.0,24.3,30.31,NW,315,0.0,0.0,39,-99.99,,,0.00,meteohub,2013-10-10 02:27:00,
2013-10-09 22:32:00,48.0,24.3,30.31,NW,315,0.0,0.0,39,-99.99,,,0.00,meteohub,2013-10-10 02:32:00,
2013-10-09 22:37:00,47.8,24.8,30.31,NW,315,0.0,0.0,40,-99.99,,,0.00,meteohub,2013-10-10 02:37:00,
2013-10-09 22:42:00,47.7,24.6,30.31,WNW,292,0.0,0.0,40,-99.99,,,0.00,meteohub,2013-10-10 02:42:00,
2013-10-09 22:47:00,47.5,24.4,30.31,NW,315,0.0,0.0,40,-99.99,,,0.00,meteohub,2013-10-10 02:47:00,